Change the Weather History Date:

Saturday, January 18, 2014

  Actual Average Record
Temperature  
Mean Temperature 56 °F -  
Max Temperature 73 °F 69 °F 73 °F (2015)
Min Temperature 40 °F 38 °F 43 °F (2015)
Degree Days  
Heating Degree Days 8    
Growing Degree Days 6 (Base 50)    
Moisture  
Dew Point 27 °F    
Average Humidity 37    
Maximum Humidity 58    
Minimum Humidity 13    
Precipitation  
Precipitation 0.00 in - - ()
Sea Level Pressure  
Sea Level Pressure 30.08 in    
Wind  
Wind Speed 4 mph (NNE)    
Max Wind Speed 9 mph    
Max Gust Speed -    
Visibility 10 miles    
Events      
Averages and records for this station are not official NWS values.
T = Trace of Precipitation, MM = Missing Value Source: NWS Daily Summary

Daily Weather History Graph

Daily Weather History Graph

Search for Another Location

Airport or City:

Trip Planner

Search our weather history database for the weather conditions in past years. The results will help you decide how hot, cold, wet, or windy it might be!

Date:

Astronomy

Jan. 18, 2014 Rise Set
Actual Time 7:32 AM MST 5:47 PM MST
Civil Twilight 7:06 AM MST 6:14 PM MST
Nautical Twilight 6:35 AM MST 6:44 PM MST
Astronomical Twilight 6:05 AM MST 7:14 PM MST
Moon 8:22 PM MST (1/18) 8:43 AM MST (1/18)
Length of Visible Light 11h 08m
Length of Day
10h 14m
Waning Gibbous, 94% of the Moon is Illuminated
Jan 18
Waning Gibbous
Jan 23
Last Quarter
Jan 30
New
Feb 6
First Quarter
Feb 14
Full

Hourly Weather History & Observations

Time (MST) Temp. Windchill Dew Point Humidity Pressure Visibility Wind Dir Wind Speed Gust Speed Precip Events Conditions
12:58 AM 52.2 °F - 21.9 °F 31% 30.05 in 10.0 mi North 9.2 mph - N/A   Clear
1:58 AM 48.9 °F - 23.7 °F 37% 30.05 in 10.0 mi NE 4.6 mph - N/A   Clear
2:58 AM 45.5 °F 44.2 °F 26.1 °F 47% 30.06 in 10.0 mi NNE 3.5 mph - N/A   Clear
3:58 AM 46.4 °F 44.3 °F 24.4 °F 42% 30.06 in 10.0 mi NE 4.6 mph - N/A   Clear
4:58 AM 46.6 °F - 23.5 °F 40% 30.07 in 10.0 mi NW 4.6 mph - N/A   Clear
5:58 AM 42.8 °F - 27.1 °F 54% 30.09 in 10.0 mi NW 2.3 mph - N/A   Clear
6:58 AM 41.0 °F 37.1 °F 27.0 °F 57% 30.10 in 10.0 mi NE 5.8 mph - N/A   Clear
7:58 AM 40.5 °F 36.5 °F 26.8 °F 58% 30.10 in 10.0 mi North 5.8 mph - N/A   Clear
8:58 AM 48.6 °F - 30.6 °F 50% 30.12 in 10.0 mi Calm Calm - N/A   Clear
9:58 AM 55.0 °F - 23.5 °F 30% 30.15 in 10.0 mi ESE 3.5 mph - N/A   Clear
10:58 AM 59.5 °F - 24.3 °F 26% 30.14 in 10.0 mi SSE 2.3 mph - N/A   Clear
11:58 AM 64.2 °F - 25.2 °F 23% 30.12 in 10.0 mi SE 3.5 mph - N/A   Clear
12:58 PM 67.6 °F - 24.4 °F 20% 30.08 in 10.0 mi South 2.3 mph - N/A   Clear
1:58 PM 70.3 °F - 22.8 °F 17% 30.05 in 10.0 mi South 2.3 mph - N/A   Clear
2:58 PM 72.3 °F - 21.0 °F 14% 30.04 in 10.0 mi SW 3.5 mph - N/A   Clear
3:58 PM 73.6 °F - 19.6 °F 13% 30.03 in 10.0 mi Calm Calm - N/A   Clear
4:58 PM 72.9 °F - 28.8 °F 20% 30.03 in 10.0 mi Calm Calm - N/A   Clear
5:58 PM 66.7 °F - 29.8 °F 25% 30.04 in 10.0 mi SW 2.3 mph - N/A   Clear
6:58 PM 59.9 °F - 34.0 °F 38% 30.05 in 10.0 mi Calm Calm - N/A   Clear
7:58 PM 55.8 °F - 34.0 °F 44% 30.06 in 10.0 mi Calm Calm - N/A   Clear
8:58 PM 51.1 °F - 35.4 °F 55% 30.08 in 10.0 mi North 6.9 mph - N/A   Clear
9:58 PM 49.5 °F - 34.2 °F 56% 30.10 in 10.0 mi North 4.6 mph - N/A   Clear
10:58 PM 48.7 °F - 32.5 °F 54% 30.10 in 10.0 mi NNW 4.6 mph - N/A   Clear
11:58 PM 48.6 °F - 29.8 °F 48% 30.09 in 10.0 mi North 2.3 mph - N/A   Clear